[[{"header":{"parameterUnit":"m.s-1","parameterCategory":1,"la1":30.2991,"la2":30.254,"lo1":-89.0895,"lo2":-89.0444,"dy":0.0017,"dx":0.0017,"nx":28,"ny":28,"refTime":"2025-03-11T21:00:00:Z","depth":0,"parameterNumber":2,"parameterNumberName":"U-component_of_WINDS"},"data":[0,0,0,0,0,0,0,0,0,0,0,0,0,0,0,0,0,0,0,0,0,0,0,0,0,0,0,0,0,0,0,0,0,0,0,0,0,0,0,0,0,0,0,0,0,0,0,0,0,0,0,0,0,0,0,0,0,0,-0.5101,-0.51,0,-0.5003,-0.5002,-0.5001,-0.4938,-0.4938,-0.4938,-0.4937,-0.4836,-0.4833,-0.4831,0,0,0,0,0,0,0,0,0,0,0,0,0,-0.523,-0.5228,-0.5101,-0.51,-0.5099,-0.5003,-0.5002,-0.5,-0.4938,-0.4938,-0.4937,-0.4937,-0.4836,-0.4834,-0.4831,0,0,0,0,0,0,0,0,0,0,0,0,0,-0.5157,-0.5228,-0.5101,-0.5056,-0.5051,-0.5003,-0.5002,-0.5,-0.4938,-0.4938,-0.4937,-0.4937,-0.4837,-0.4834,-0.483,-0.4819,0,0,-0.4819,-0.4818,0,0,0,0,0,0,0,0,-0.5162,-0.5153,-0.5064,-0.5059,-0.5054,-0.4982,-0.501,-0.4939,-0.4939,-0.4981,-0.4937,-0.4937,-0.4885,-0.4877,-0.486,-0.4814,-0.481,-0.4819,-0.4817,-0.4815,-0.4814,0,0,0,0,0,0,0,-0.5167,-0.5156,-0.5062,-0.5063,-0.5056,-0.5039,-0.5028,-0.4996,-0.4937,-0.4977,-0.4973,-0.4962,-0.4882,-0.4864,-0.4857,-0.4809,-0.4819,-0.4816,-0.4814,-0.4812,-0.4742,-0.4742,0,0,0,0,0,0,-0.5179,-0.5161,-0.5065,-0.5059,-0.5107,-0.5037,-0.5025,-0.5006,-0.4937,-0.4926,-0.4963,-0.4959,-0.487,-0.4861,-0.4853,-0.4832,-0.4815,-0.4812,-0.481,-0.4742,-0.4742,-0.4742,0,0,0,0,0,0,-0.5182,-0.5171,-0.5069,-0.5109,-0.5094,-0.5036,-0.5014,-0.5004,-0.4986,-0.4926,-0.4915,-0.4955,-0.4869,-0.4858,-0.4827,-0.4827,-0.4811,-0.4807,-0.4741,-0.4742,-0.4742,-0.4791,0,0,0,0,0,0,-0.5186,-0.5173,-0.517,-0.5109,-0.5093,-0.5046,-0.5015,-0.5003,-0.498,-0.4975,-0.4916,-0.4906,-0.4868,-0.4832,-0.4823,-0.4822,-0.4804,-0.4741,-0.4742,-0.4742,-0.4789,-0.4793,-0.4797,0,0,0,0,0,-0.5191,-0.5189,-0.517,-0.5159,-0.5088,-0.5047,-0.5037,-0.4994,-0.4981,-0.4975,-0.4936,-0.4908,-0.4829,-0.483,-0.4819,-0.4817,-0.4741,-0.4741,-0.4742,-0.4788,-0.4793,-0.4797,0,0,0,0,0,0,-0.5252,-0.518,-0.5159,-0.5137,-0.5098,-0.5036,-0.5029,-0.5001,-0.4965,-0.4962,-0.4909,-0.4896,-0.4869,-0.484,-0.4842,-0.4799,-0.4781,-0.478,-0.482,-0.4824,-0.4827,-0.4835,-0.4802,0,0,0,0,0,-0.5262,-0.5236,-0.5175,-0.5161,-0.5142,-0.5089,-0.507,-0.5039,-0.4997,-0.498,-0.4939,-0.4898,-0.4863,-0.4842,-0.4807,-0.4784,-0.4768,-0.4777,-0.4781,-0.4784,-0.4783,-0.4764,-0.4766,-0.4744,-0.4744,-0.4744,0,0,-0.5285,-0.5242,-0.5229,-0.5172,-0.5138,-0.511,-0.5076,-0.5049,-0.5027,-0.4976,-0.4943,-0.491,-0.4861,-0.4832,-0.4818,-0.4807,-0.4785,-0.4785,-0.4788,-0.4785,-0.4765,-0.4767,-0.4768,-0.4745,-0.4745,-0.4744,0,0,-0.531,-0.5277,-0.5259,-0.5226,-0.5175,-0.5138,-0.5134,-0.5075,-0.5051,-0.5017,-0.4976,-0.4948,-0.4891,-0.4856,-0.4831,-0.4836,-0.4807,-0.4826,-0.4846,-0.4827,-0.4829,-0.483,-0.4829,-0.4829,-0.4826,-0.4826,-0.4826,0,-0.5344,-0.5301,-0.5254,-0.5228,-0.5202,-0.5153,-0.5133,-0.5103,-0.5043,-0.5025,-0.5014,-0.4937,-0.4901,-0.4861,-0.4862,-0.4844,-0.4835,-0.4833,-0.4833,-0.4833,-0.4834,-0.4832,-0.4832,-0.4828,-0.4828,-0.4828,-0.4827,0,-0.5343,-0.5314,-0.5306,-0.5248,-0.5221,-0.5199,-0.5145,-0.5123,-0.5093,-0.5057,-0.502,-0.4973,-0.4926,-0.4914,-0.4886,-0.4869,-0.4863,-0.4843,-0.4824,-0.4839,-0.4836,-0.4835,-0.4832,-0.4831,-0.483,-0.4829,0,0,-0.5407,-0.532,-0.5318,-0.5289,-0.5226,-0.5202,-0.5174,-0.5127,-0.5108,-0.5067,-0.504,-0.499,-0.4969,-0.4941,-0.4907,-0.4891,-0.4893,-0.4872,-0.487,-0.4875,-0.4866,-0.4881,-0.4881,-0.4873,-0.4873,-0.4873,-0.4869,0,-0.5422,-0.5372,-0.5326,-0.5292,-0.5261,-0.5212,-0.5187,-0.5145,-0.5109,-0.5076,-0.5036,-0.5,-0.4977,-0.4958,-0.494,-0.4897,-0.489,-0.4897,-0.4846,-0.4845,-0.4859,-0.488,-0.4897,-0.4896,-0.4868,-0.4868,-0.4868,0,-0.5433,-0.5393,-0.5355,-0.5291,-0.5276,-0.5256,-0.5206,-0.5176,-0.5125,-0.5099,-0.5064,-0.5028,-0.4993,-0.4977,-0.4926,-0.4931,-0.4907,-0.4882,-0.4881,-0.4874,-0.4857,-0.4872,-0.4895,-0.4894,-0.4866,-0.4866,-0.4867,0,-0.548,-0.5416,-0.5384,-0.5361,-0.5286,-0.5272,-0.524,-0.5188,-0.5161,-0.5117,-0.5098,-0.505,-0.5024,-0.4987,-0.4937,-0.493,-0.489,-0.487,-0.4865,-0.4866,-0.4859,-0.486,-0.4877,-0.4846,-0.4846,-0.4846,-0.4846,0,-0.55,-0.5479,-0.5403,-0.5384,-0.5356,-0.5302,-0.5275,-0.5239,-0.5192,-0.5162,-0.5116,-0.5088,-0.5025,-0.4988,-0.4949,-0.491,-0.49,-0.4876,-0.4865,-0.4879,-0.4882,-0.4862,-0.4861,-0.4846,-0.4846,-0.4846,-0.4846,0,-0.5549,-0.5498,-0.5459,-0.539,-0.5372,-0.5354,-0.5294,-0.5271,-0.5231,-0.5193,-0.518,-0.5117,-0.5071,-0.5017,-0.4955,-0.4927,-0.4891,-0.4877,-0.4909,-0.4902,-0.4899,-0.4899,-0.4903,-0.4899,-0.4873,-0.4873,-0.4874,0,-0.5565,-0.5546,-0.5474,-0.5451,-0.542,-0.5383,-0.5354,-0.5298,-0.527,-0.5207,-0.519,-0.5141,-0.5098,-0.5027,-0.4973,-0.4923,-0.4906,-0.4911,-0.4899,-0.4911,-0.4903,-0.4904,-0.49,-0.4914,-0.4915,-0.4915,-0.4916,0,-0.5597,-0.5571,-0.5533,-0.5483,-0.545,-0.5408,-0.5364,-0.5347,-0.5282,-0.5251,-0.5203,-0.517,-0.5104,-0.5054,-0.4996,-0.496,-0.4925,-0.4919,-0.4915,-0.4929,-0.4947,-0.4934,-0.4916,-0.492,-0.492,-0.4919,-0.4919,-0.4919,-0.5628,-0.5607,-0.5552,-0.5509,-0.5469,-0.5428,-0.5402,-0.5357,-0.5317,-0.5259,-0.5227,-0.5179,-0.5122,-0.5041,-0.5006,-0.4965,-0.4954,-0.4948,-0.4946,-0.4946,-0.4948,-0.4954,-0.4955,-0.4954,-0.4954,-0.4954,-0.4954,0,-0.5655,-0.5616,-0.5577,-0.5516,-0.5481,-0.5451,-0.54,-0.5371,-0.533,-0.528,-0.5238,-0.5181,-0.513,-0.5071,-0.5016,-0.4995,-0.4977,-0.4982,-0.4982,-0.4974,-0.4963,-0.4971,-0.4997,-0.4997,-0.4997,-0.4997,-0.4997,-0.4997,-0.5666,-0.5628,-0.5596,-0.5536,-0.5497,-0.545,-0.5422,-0.5382,-0.5342,-0.528,-0.5238,-0.52,-0.5145,-0.5084,-0.5035,-0.5019,-0.5,-0.5009,-0.4988,-0.4979,-0.4975,-0.4972,-0.4979,-0.5006,-0.5006,-0.5001,-0.5001,-0.5001]},{"header":{"parameterUnit":"m.s-1","parameterCategory":1,"la1":30.2991,"la2":30.254,"lo1":-89.0895,"lo2":-89.0444,"dy":0.0017,"dx":0.0017,"nx":28,"ny":28,"refTime":"2025-03-11T21:00:00:Z","depth":0,"parameterNumber":3,"parameterNumberName":"V-component_of_WINDS"},"data":[0,0,0,0,0,0,0,0,0,0,0,0,0,0,0,0,0,0,0,0,0,0,0,0,0,0,0,0,0,0,0,0,0,0,0,0,0,0,0,0,0,0,0,0,0,0,0,0,0,0,0,0,0,0,0,0,0,0,3.2531,3.2532,0,3.2692,3.2693,3.2695,3.2781,3.2782,3.2782,3.2782,3.2946,3.295,3.2954,0,0,0,0,0,0,0,0,0,0,0,0,0,3.2299,3.2303,3.253,3.2533,3.2535,3.2691,3.2694,3.2696,3.2781,3.2782,3.2782,3.2782,3.2944,3.2949,3.2954,0,0,0,0,0,0,0,0,0,0,0,0,0,3.2423,3.2304,3.253,3.2596,3.2604,3.2691,3.2694,3.2696,3.2781,3.2782,3.2782,3.2782,3.2943,3.2949,3.2955,3.2988,0,0,3.2974,3.2977,0,0,0,0,0,0,0,0,3.2416,3.2432,3.2585,3.2592,3.26,3.2717,3.2672,3.2794,3.2781,3.2714,3.2782,3.2782,3.2869,3.2881,3.2911,3.2996,3.3003,3.2975,3.2978,3.2981,3.2983,0,0,0,0,0,0,0,3.2407,3.2425,3.2594,3.2587,3.2596,3.2618,3.2636,3.2696,3.2788,3.272,3.2726,3.2744,3.2874,3.2905,3.2916,3.3005,3.2974,3.298,3.2984,3.2986,3.313,3.313,0,0,0,0,0,0,3.2388,3.2418,3.2589,3.2599,3.2507,3.2622,3.2642,3.2679,3.2788,3.2804,3.2744,3.2748,3.2894,3.2908,3.2922,3.297,3.2981,3.2987,3.2991,3.313,3.313,3.313,0,0,0,0,0,0,3.2383,3.2403,3.2583,3.251,3.2535,3.2626,3.2666,3.2682,3.2714,3.2806,3.2823,3.2759,3.2895,3.2913,3.2972,3.2977,3.299,3.2996,3.313,3.313,3.313,3.3066,0,0,0,0,0,0,3.2376,3.24,3.2413,3.251,3.2538,3.263,3.2667,3.2685,3.2724,3.2731,3.2824,3.284,3.2896,3.2962,3.2978,3.2986,3.3,3.313,3.313,3.313,3.3068,3.3064,3.306,0,0,0,0,0,3.2367,3.2388,3.2413,3.2434,3.2557,3.263,3.2646,3.2711,3.2724,3.2739,3.2799,3.2837,3.2974,3.2967,3.2986,3.2996,3.3129,3.313,3.313,3.307,3.3065,3.306,0,0,0,0,0,0,3.2288,3.2402,3.2431,3.2484,3.2547,3.2644,3.2664,3.2703,3.2763,3.2766,3.2844,3.2864,3.2916,3.2962,3.2953,3.3036,3.3056,3.306,3.3004,3.3,3.2996,3.2984,3.3006,0,0,0,0,0,3.2277,3.2327,3.2423,3.246,3.2491,3.2572,3.2606,3.2651,3.2719,3.2746,3.281,3.2874,3.2932,3.2969,3.3027,3.3075,3.3098,3.3092,3.3088,3.3084,3.3086,3.3119,3.3117,3.313,3.313,3.313,0,0,3.2254,3.2322,3.2349,3.2446,3.25,3.2551,3.2593,3.2644,3.2683,3.2753,3.2814,3.2863,3.2941,3.2995,3.3023,3.3035,3.3088,3.3084,3.308,3.3085,3.3118,3.3117,3.3116,3.313,3.313,3.313,0,0,3.2239,3.2294,3.2333,3.2387,3.2469,3.2523,3.2532,3.2625,3.2661,3.2723,3.2778,3.2825,3.2922,3.2976,3.3016,3.3025,3.3063,3.3041,3.3021,3.3051,3.305,3.305,3.3055,3.3055,3.3043,3.3043,3.3043,0,3.22,3.2278,3.2348,3.2397,3.2439,3.2506,3.2547,3.2595,3.2691,3.272,3.2732,3.2858,3.2915,3.2985,3.2987,3.3016,3.3031,3.3031,3.3045,3.3045,3.3046,3.3051,3.3053,3.304,3.3041,3.3041,3.3041,0,3.2227,3.2281,3.2302,3.2395,3.244,3.2484,3.2561,3.2598,3.264,3.2693,3.2757,3.2828,3.2903,3.2923,3.2963,3.2999,3.3005,3.303,3.3052,3.304,3.3047,3.305,3.3036,3.3037,3.3038,3.3039,0,0,3.2165,3.2298,3.2305,3.2349,3.2446,3.2489,3.2537,3.2612,3.2643,3.2707,3.2751,3.2834,3.2859,3.2904,3.2951,3.2978,3.2983,3.3001,3.3004,3.2996,3.303,3.3011,3.3012,3.3009,3.301,3.301,3.3024,0,3.2164,3.2254,3.232,3.2385,3.2437,3.2503,3.2546,3.261,3.2662,3.2714,3.2771,3.2829,3.2857,3.2885,3.2914,3.2976,3.2991,3.2976,3.3051,3.3053,3.3031,3.3015,3.2995,3.3004,3.3027,3.3027,3.3028,0,3.2175,3.2239,3.231,3.2404,3.2428,3.2465,3.2541,3.2589,3.2664,3.27,3.2753,3.2802,3.2857,3.2874,3.2953,3.2941,3.2976,3.3011,3.3013,3.3023,3.304,3.3026,3.3009,3.301,3.3032,3.3032,3.3031,0,3.2124,3.2229,3.2285,3.2321,3.2431,3.2456,3.2504,3.2579,3.2621,3.2687,3.2715,3.2786,3.2825,3.2879,3.2947,3.2952,3.3019,3.3041,3.3052,3.305,3.3063,3.3061,3.3052,3.3083,3.3083,3.3083,3.3083,0,3.2117,3.2158,3.2265,3.2299,3.2348,3.2424,3.247,3.2523,3.259,3.2638,3.2699,3.2742,3.2828,3.2882,3.2935,3.2994,3.301,3.3042,3.3056,3.3037,3.3033,3.3061,3.3063,3.3084,3.3083,3.3083,3.3083,0,3.2069,3.2141,3.2208,3.2308,3.2334,3.2366,3.2452,3.249,3.2546,3.2605,3.2623,3.2711,3.2778,3.2851,3.2942,3.2978,3.3034,3.3053,3.3009,3.3017,3.3024,3.3023,3.3033,3.304,3.3065,3.3065,3.3064,0,3.206,3.2093,3.2198,3.2234,3.228,3.2338,3.2382,3.2458,3.2501,3.2591,3.2618,3.269,3.2751,3.2855,3.2928,3.2999,3.3021,3.302,3.3031,3.3013,3.3023,3.302,3.3025,3.3016,3.3015,3.3014,3.3014,0,3.2037,3.2072,3.2132,3.2206,3.2257,3.2318,3.2382,3.2409,3.2498,3.2544,3.2614,3.2662,3.2756,3.2828,3.2908,3.2957,3.3001,3.301,3.3017,3.2998,3.2972,3.2988,3.3,3.3009,3.301,3.301,3.301,3.301,3.2009,3.2043,3.2123,3.2189,3.2246,3.2305,3.2346,3.2408,3.2468,3.2551,3.2593,3.2663,3.2741,3.2853,3.2902,3.2959,3.2972,3.2981,3.2984,3.2985,3.2981,3.2962,3.2973,3.2974,3.2974,3.2974,3.2974,0,3.1991,3.2046,3.2106,3.2195,3.2248,3.2285,3.2359,3.2401,3.2462,3.2531,3.2591,3.2673,3.2743,3.2822,3.2898,3.2928,3.295,3.2945,3.2944,3.2956,3.2963,3.2951,3.2926,3.2926,3.2926,3.2926,3.2926,3.2926,3.1987,3.2048,3.2093,3.2183,3.2238,3.2308,3.2347,3.2403,3.2459,3.2548,3.2607,3.2658,3.2732,3.2814,3.2881,3.2902,3.2928,3.2917,3.2945,3.2951,3.2955,3.2958,3.2947,3.2922,3.2922,3.2933,3.2933,3.2933]}]]